Location: St. Louis
(38.6270°N, 90.1994°W)
Time: 23:18:10
(UTC-06:00)

KAITUO 1B - Visible Passes

Search period start: 27 January 2022 00:00
Search period end: 06 February 2022 00:00
Orbit: 486 x 507 km, 97.4° (Epoch: 27 January)

Date Brightness Start Highest point End Pass type
(mag) Time Alt. Az. Time Alt. Az. Time Alt. Az.
27 Jan ? 05:34:43 10° ENE 05:36:43 14° E 05:38:42 10° SE visible
27 Jan ? 17:42:48 10° SSE 17:46:24 82° ENE 17:50:01 10° N visible
28 Jan ? 18:58:56 10° WSW 18:59:37 10° W 19:00:19 10° W visible
29 Jan ? 06:25:31 10° NNE 06:29:08 69° E 06:32:45 10° S visible
29 Jan ? 18:36:06 10° SW 18:38:44 19° W 18:41:24 10° NW visible
30 Jan ? 06:05:01 10° NNE 06:08:23 35° E 06:11:44 10° SSE visible
30 Jan ? 18:14:36 10° SSW 18:17:55 35° W 18:21:16 10° NNW visible
31 Jan ? 05:44:53 10° NE 05:47:33 19° E 05:50:14 10° SE visible
31 Jan ? 17:53:34 10° S 17:57:09 70° WSW 18:00:45 10° NNW visible
01 Feb ? 05:25:55 10° E 05:26:40 10° E 05:27:24 10° ESE visible
02 Feb ? 06:36:11 10° N 06:39:50 83° WNW 06:43:29 10° SSW visible
02 Feb ? 18:47:30 10° SW 18:49:29 14° W 18:51:28 10° WNW visible
03 Feb ? 06:15:31 10° NNE 06:19:04 49° E 06:22:37 10° S visible
03 Feb ? 18:25:33 10° SSW 18:28:35 25° W 18:31:38 10° NW visible
04 Feb ? 05:55:07 10° NE 05:58:14 26° E 06:01:20 10° SSE visible
04 Feb ? 18:04:16 10° S 18:07:45 49° W 18:11:16 10° NNW visible
05 Feb ? 05:35:15 10° ENE 05:37:20 14° E 05:39:24 10° SE visible
